When you browse on this site, cookies collect data to enhance your experience and personalize the content and advertising you see.
Visit our Privacy Policy to learn more. By continuing to use the site, you agree to this use of cookies and data.
  • In Hungary
  • List of Countries
  • For 7 days
  • Water Temperature
  • Satellite Maps
  • Weather Map
  • News
  • Weather Widgets
  • user-avatar
    Login

    Hourly Weather Telfs

    Today, 20 March, Wednesday

    Time Temperature Precipitation Wind Pressure Humidity
    00:00 -3°C° 0 mm 1 mps 699 mmHg 88%
    01:00 -3°C° 0 mm 1 mps 699 mmHg 89%
    02:00 -3°C° 0 mm 1 mps 699 mmHg 88%
    03:00 -4°C° 0 mm 1 mps 699 mmHg 88%
    04:00 -4°C° 0 mm 1 mps 699 mmHg 87%
    05:00 -4°C° 0 mm 1 mps 699 mmHg 84%
    06:00 -4°C° 0 mm 1 mps 700 mmHg 81%
    07:00 -2°C° 0 mm 1 mps 700 mmHg 77%
    08:00 0°C° 0 mm 1 mps 700 mmHg 72%
    09:00 +2°C° 0 mm 1 mps 700 mmHg 67%
    10:00 +5°C° 0 mm 1 mps 701 mmHg 62%
    11:00 +5°C° 0 mm 1 mps 701 mmHg 62%
    12:00 +6°C° 0 mm 1 mps 700 mmHg 62%
    13:00 +7°C° 0 mm 1 mps 700 mmHg 62%
    14:00 +7°C° 0 mm 1 mps 700 mmHg 64%
    15:00 +7°C° 0 mm 1 mps 700 mmHg 66%
    16:00 +7°C° 0 mm 1 mps 700 mmHg 68%
    17:00 +5°C° 0 mm 1 mps 700 mmHg 74%
    18:00 +2°C° 0 mm 1 mps 700 mmHg 80%
    19:00 0°C° 0 mm 1 mps 700 mmHg 86%
    20:00 0°C° 0 mm 1 mps 700 mmHg 83%
    21:00 -1°C° 0 mm 1 mps 701 mmHg 80%
    22:00 -1°C° 0 mm 1 mps 701 mmHg 77%
    23:00 -1°C° 0 mm 1 mps 701 mmHg 74%

    Tomorrow, 21 March, Thursday

    Time Temperature Precipitation Wind Pressure Humidity
    00:00 -1°C° 0 mm 1 mps 701 mmHg 71%
    01:00 -3°C° 0 mm 2 mps 701 mmHg 67%
    02:00 -3°C° 0 mm 2 mps 701 mmHg 65%
    03:00 -3°C° 0 mm 2 mps 701 mmHg 63%
    04:00 -3°C° 0 mm 2 mps 701 mmHg 60%
    05:00 -2°C° 0 mm 2 mps 701 mmHg 59%
    06:00 -2°C° 0 mm 2 mps 701 mmHg 58%
    07:00 -2°C° 0 mm 2 mps 701 mmHg 57%
    08:00 +3°C° 0 mm 2 mps 701 mmHg 57%
    09:00 +7°C° 0 mm 1 mps 701 mmHg 58%
    10:00 +10°C° 0 mm 1 mps 701 mmHg 59%
    11:00 +11°C° 0 mm 1 mps 701 mmHg 60%
    12:00 +12°C° 0 mm 1 mps 701 mmHg 61%
    13:00 +13°C° 0 mm 1 mps 701 mmHg 61%
    14:00 +13°C° 0 mm 1 mps 700 mmHg 65%
    15:00 +13°C° 0 mm 1 mps 700 mmHg 68%
    16:00 +13°C° 0 mm 1 mps 700 mmHg 71%
    17:00 +10°C° 0 mm 1 mps 700 mmHg 73%
    18:00 +8°C° 0 mm 1 mps 699 mmHg 75%
    19:00 +5°C° 0 mm 1 mps 699 mmHg 76%
    20:00 +5°C° 0 mm 1 mps 700 mmHg 72%
    21:00 +4°C° 0 mm 2 mps 700 mmHg 68%
    22:00 +3°C° 0 mm 2 mps 700 mmHg 64%
    23:00 +3°C° 0 mm 2 mps 700 mmHg 61%

    Day after tomorrow, 22 March, Friday

    Time Temperature Precipitation Wind Pressure Humidity
    00:00 +3°C° 0 mm 2 mps 700 mmHg 59%
    01:00 +3°C° 0 mm 2 mps 700 mmHg 56%
    02:00 +3°C° 0 mm 2 mps 700 mmHg 55%
    03:00 +3°C° 0 mm 2 mps 700 mmHg 54%
    04:00 +3°C° 0 mm 2 mps 700 mmHg 53%
    05:00 +3°C° 0 mm 2 mps 700 mmHg 53%
    06:00 +3°C° 0 mm 2 mps 700 mmHg 52%
    07:00 +3°C° 0 mm 2 mps 700 mmHg 51%
    08:00 +6°C° 0 mm 2 mps 700 mmHg 54%
    09:00 +11°C° 0 mm 1 mps 700 mmHg 57%
    10:00 +13°C° 0 mm 0 mps 700 mmHg 59%
    11:00 +14°C° 0 mm 0 mps 700 mmHg 58%
    12:00 +14°C° 0 mm 0 mps 700 mmHg 57%
    13:00 +15°C° 0 mm 0 mps 700 mmHg 57%
    14:00 +15°C° 0 mm 0 mps 699 mmHg 60%
    15:00 +15°C° 0 mm 1 mps 699 mmHg 63%
    16:00 +15°C° 0 mm 1 mps 699 mmHg 66%
    17:00 +12°C° 0 mm 1 mps 699 mmHg 71%
    18:00 +10°C° 0 mm 1 mps 698 mmHg 76%
    19:00 +7°C° 0 mm 1 mps 698 mmHg 81%
    20:00 +7°C° 0 mm 1 mps 698 mmHg 79%
    21:00 +7°C° 0 mm 1 mps 699 mmHg 77%
    22:00 +6°C° 0 mm 2 mps 699 mmHg 74%
    23:00 +5°C° 0 mm 2 mps 699 mmHg 72%

    23 March, Saturday

    Time Temperature Precipitation Wind Pressure Humidity
    00:00 +5°C° 0 mm 2 mps 699 mmHg 69%
    01:00 +5°C° 0 mm 2 mps 699 mmHg 67%
    02:00 +5°C° 0 mm 2 mps 699 mmHg 66%
    03:00 +5°C° 0 mm 1 mps 699 mmHg 66%
    04:00 +5°C° 0 mm 1 mps 699 mmHg 66%
    05:00 +5°C° 0 mm 1 mps 699 mmHg 66%
    06:00 +6°C° 0 mm 1 mps 699 mmHg 67%
    07:00 +6°C° 0 mm 1 mps 699 mmHg 67%
    08:00 +8°C° 0 mm 1 mps 699 mmHg 64%
    09:00 +11°C° 0 mm 1 mps 699 mmHg 61%
    10:00 +13°C° 0 mm 0 mps 699 mmHg 58%
    11:00 +15°C° 0 mm 1 mps 699 mmHg 58%
    12:00 +15°C° 0 mm 1 mps 699 mmHg 57%
    13:00 +16°C° 0 mm 1 mps 699 mmHg 56%
    14:00 +16°C° 0 mm 1 mps 698 mmHg 58%
    15:00 +15°C° 0 mm 1 mps 698 mmHg 60%
    16:00 +15°C° 0 mm 1 mps 698 mmHg 62%
    17:00 +13°C° 0 mm 1 mps 697 mmHg 69%
    18:00 +10°C° 0 mm 1 mps 697 mmHg 76%
    19:00 +7°C° 0 mm 0 mps 697 mmHg 83%
    20:00 +8°C° 0 mm 1 mps 697 mmHg 81%
    21:00 +8°C° 0 mm 1 mps 697 mmHg 78%
    22:00 +6°C° 0 mm 2 mps 697 mmHg 76%
    23:00 +6°C° 0 mm 2 mps 697 mmHg 73%

    24 March, Sunday

    Time Temperature Precipitation Wind Pressure Humidity
    00:00 +6°C° 0 mm 2 mps 697 mmHg 70%
    01:00 +5°C° 0 mm 2 mps 697 mmHg 68%
    02:00 +5°C° 0 mm 2 mps 697 mmHg 67%
    03:00 +5°C° 0 mm 2 mps 697 mmHg 66%
    04:00 +5°C° 0 mm 2 mps 696 mmHg 65%
    05:00 +5°C° 0 mm 2 mps 696 mmHg 65%
    06:00 +5°C° 0 mm 2 mps 696 mmHg 65%
    07:00 +6°C° 0 mm 2 mps 696 mmHg 65%
    08:00 +10°C° 0 mm 1 mps 696 mmHg 61%
    09:00 +13°C° 0 mm 1 mps 697 mmHg 57%
    10:00 +14°C° 0 mm 0 mps 697 mmHg 53%
    11:00 +16°C° 0 mm 1 mps 697 mmHg 53%
    12:00 +16°C° 0 mm 1 mps 696 mmHg 53%
    13:00 +18°C° 0 mm 1 mps 696 mmHg 52%
    14:00 +16°C° 0 mm 1 mps 696 mmHg 55%
    15:00 +16°C° 0 mm 1 mps 695 mmHg 59%
    16:00 +15°C° 0 mm 1 mps 695 mmHg 62%
    17:00 +13°C° 0 mm 1 mps 695 mmHg 71%
    18:00 +11°C° 0 mm 1 mps 694 mmHg 80%
    19:00 +8°C° 0 mm 0 mps 694 mmHg 90%
    20:00 +9°C° 0 mm 1 mps 695 mmHg 90%
    21:00 +8°C° 0 mm 1 mps 695 mmHg 91%
    22:00 +8°C° 0 mm 1 mps 695 mmHg 92%
    23:00 +8°C° 0 mm 1 mps 695 mmHg 92%

    25 March, Monday

    Time Temperature Precipitation Wind Pressure Humidity
    00:00 +7°C° 0 mm 1 mps 695 mmHg 92%
    01:00 +7°C° 0 mm 1 mps 695 mmHg 92%
    02:00 +6°C° 0 mm 1 mps 694 mmHg 92%
    03:00 +6°C° 0 mm 1 mps 694 mmHg 91%
    04:00 +6°C° 0 mm 1 mps 694 mmHg 91%
    05:00 +6°C° 0 mm 1 mps 694 mmHg 90%
    06:00 +6°C° 0 mm 1 mps 694 mmHg 88%
    07:00 +7°C° 0 mm 1 mps 694 mmHg 87%
    08:00 +8°C° 0.1 mm 1 mps 694 mmHg 84%
    09:00 +9°C° 0.1 mm 1 mps 694 mmHg 81%
    10:00 +10°C° 0.1 mm 1 mps 695 mmHg 78%
    11:00 +10°C° 0.1 mm 1 mps 694 mmHg 78%
    12:00 +10°C° 0.1 mm 2 mps 694 mmHg 78%
    13:00 +10°C° 0.1 mm 2 mps 694 mmHg 78%
    14:00 +9°C° 0.2 mm 2 mps 693 mmHg 80%
    15:00 +8°C° 0.2 mm 2 mps 693 mmHg 83%
    16:00 +8°C° 0.2 mm 2 mps 692 mmHg 85%
    17:00 +7°C° 0.3 mm 2 mps 693 mmHg 88%
    18:00 +6°C° 0.3 mm 2 mps 693 mmHg 91%
    19:00 +5°C° 0.3 mm 2 mps 693 mmHg 94%
    20:00 +5°C° 0.2 mm 2 mps 693 mmHg 94%
    21:00 +4°C° 0.2 mm 2 mps 693 mmHg 94%
    22:00 +4°C° 0.2 mm 2 mps 694 mmHg 94%
    23:00 +3°C° 0.2 mm 2 mps 694 mmHg 94%
    Show more